Regional Weather Roundup
Issued by NWS

Home | Current Version | Previous Version | Text Only | Print | Product List | Glossary Off
Versions: 1 2 3 4 5 6 7 8 9 10 11 12 13 14 15 16 17 18 19 20 21 22 23 24 25 26 27 28 29 30 31 32 33 34 35 36 37 38 39 40 41 42 43 44 45 46 47 48 49 50

000
ASUS43 KOAX 251002
RWRNE

WEATHER ROUNDUP FOR NEBRASKA
NATIONAL WEATHER SERVICE OMAHA NE
400 AM CST SAT FEB 25 2017

NOTES: SATELLITE DATA IS BEING USED TO AUGMENT CLOUD COVER ABOVE
       12000 FEET.
       "FAIR" INDICATES FEW OR NO CLOUDS BELOW 12,000 FEET WITH NO
       SIGNIFICANT WEATHER AND/OR OBSTRUCTIONS TO VISIBILITY.

  * THESE STATIONS DO NOT REPORT WEATHER SUCH AS RAIN...SNOW OR FOG.

NEZ001>004-019>022-054>056-251100-
NEBRASKA PANHANDLE

CITY           SKY/WX    TMP DP  RH WIND       PRES   REMARKS
SCOTTSBLUFF    CLOUDY     2  -3  80 N5        29.98F WCI  -8
ALLIANCE       FOG       -7 -10  87 W6        29.96F VSB 1/2 WCI -20
CHADRON        CLOUDY     5   1  83 SW10      29.99F WCI -10
KIMBALL        CLEAR      9   8  93 SW12      29.94F WCI  -6
SIDNEY         CLEAR      4   0  83 W7        29.98F WCI  -8
$$

NEZ057>060-069>072-079>082-251100-
SOUTHWEST NEBRASKA

CITY           SKY/WX    TMP DP  RH WIND       PRES   REMARKS
NORTH PLATTE   CLOUDY     6   2  83 CALM      30.08F FOG
IMPERIAL       CLEAR      9   5  84 SW3       30.06F
LEXINGTON      CLEAR      9   5  84 CALM      30.11F
MCCOOK         CLEAR     11   8  88 CALM      30.11F
OGALLALA       MOCLDY     5   1  86 CALM      30.04F
$$

NEZ005>010-023>029-035>040-094-251100-
NORTH CENTRAL NEBRASKA

CITY           SKY/WX    TMP DP  RH WIND       PRES   REMARKS
VALENTINE      CLOUDY     2  -2  83 SW8       30.03F WCI -12
AINSWORTH      CLOUDY     8   6  92 S6        30.03F WCI  -3
BROKEN BOW     CLOUDY    11   6  81 CALM      30.08F
O`NEILL        PTCLDY     8   5  87 W7        30.08F WCI  -4
ORD            CLOUDY     5   0  79 N6        30.09F WCI  -6
THEDFORD       CLOUDY     2   0  89 CALM      30.04F
$$

NEZ041-046>049-061>064-073>077-083>087-251100-
SOUTH CENTRAL NEBRASKA

CITY           SKY/WX    TMP DP  RH WIND       PRES   REMARKS
GRAND ISLAND   CLOUDY    13   9  84 W9        30.12F WCI   1
AURORA         CLOUDY    13   9  85 W5        30.11S WCI   5
HASTINGS       CLOUDY    14   9  80 W8        30.13F WCI   3
HEBRON         CLEAR     17  12  80 W5        30.15R WCI  10
HOLDREGE       CLEAR     12   8  82 W6        30.11F WCI   3
KEARNEY *      CLOUDY    12   3  67 NW7       30.12F WCI   2
YORK           CLOUDY    14  10  85 NW10      30.10F WCI   1
$$

NEZ011>018-030>034-042>045-251100-
NORTHEAST NEBRASKA

CITY           SKY/WX    TMP DP  RH WIND       PRES   REMARKS
NORFOLK        CLOUDY    12   8  84 W8        30.08F WCI   0
ALBION         CLOUDY    13   7  76 N6        30.10S WCI   4
BLAIR          CLEAR     18  14  82 NW5       30.07R WCI  11
FREMONT        CLEAR     18  13  82 SW5       30.10R WCI  11
TEKAMAH        CLEAR     18  12  77 NW10      30.09S WCI   6
$$

NEZ050>053-065>068-078-088>093-251100-
SOUTHEAST NEBRASKA

CITY           SKY/WX    TMP DP  RH WIND       PRES   REMARKS
LINCOLN        CLEAR     20  13  74 NW9       30.13R WCI   9
OMAHA EPPLEY   CLEAR     19  12  74 NW12      30.09S WCI   7
BEATRICE       CLEAR     17  13  85 NW6       30.11S WCI   9
FALLS CITY     CLEAR     20  14  77 NW8       30.10S WCI  10
NEBRASKA CITY  CLEAR     20  13  74 N10       30.08F WCI   9
PLATTSMOUTH    CLEAR     20  12  73 NW9       30.08S WCI   9
$$

NEZ044-045-051>053-067-251100-
OMAHA AREA

CITY           SKY/WX    TMP DP  RH WIND       PRES   REMARKS
OMAHA EPPLEY   CLEAR     19  12  74 NW12      30.09S WCI   7
BLAIR          CLEAR     18  14  82 NW5       30.07R WCI  11
FREMONT        CLEAR     18  13  82 SW5       30.10R WCI  11
MILLARD        CLEAR     23  16  75 NW7       30.09F WCI  14
OFFUTT AFB     CLEAR     16  11  79 NW7       30.08S WCI   6
PLATTSMOUTH    CLEAR     20  12  73 NW9       30.08S WCI   9
WAHOO          FAIR      19  13  78 NW12      30.10R WCI   6
$$




USA.gov is the U.S. government's official web portal to all federal, state and local government web resources and services.